Weather in Vargater

Russia / Tomsk District     57°40′35″N   82°26′44″E
temp.,
°C
wind,
m/s
gust,
m/s
humid.,
%
clouds,
%
prec.,
mm/h
press.,
hPa
HPBL,
m
28 february, sun
sun2801:00−28sw279898 0.0 1034150
04:00−30ssw259862 0.0 1034101
07:00−32ssw259844 0.0 103586
10:00−29ssw259745 0.0 1034180
13:00−23ssw249447 0.0 1033318
16:00−20s249291 0.0 1031397
19:00−23se239790 0.0 102922
22:00−25ese239865 0.0 102842
1 march, mon
mon101:00−26e239869 0.0 102643
04:00−26ene379869 0.0 1024143
07:00−25ene389680 0.0 1021235
10:00−23ene4995100 0.0 1019274
13:00−18ene4993100 0.0 1017364
16:00−16ene51092100 0.0 1015469
19:00−17ne51192100 0.1 1015465
22:00−19ne41194100 0.0 1014432
2 march, tue
tue201:00−21ne41094100 0.0 1015361
04:00−24ne389691 0.0 1016233
07:00−24ne379591 0.0 1017237
10:00−24ene3594100 0.0 1018246
13:00−19ene249197 0.0 1019320
16:00−15e248979 0.0 1018405
19:00−18e229689 0.0 101824
22:00−20e239986 0.0 101933
3 march, wed
wed301:00−21e239983 0.0 101851
04:00−22ese239868 0.0 101861
07:00−24ese239869 0.0 101967
10:00−22ese249759 0.0 1019178
13:00−16se249169 0.0 1019322
16:00−13ese249197 0.1 1019509
19:00−15ese259699 0.1 1020125
22:00−18se379795 0.0 1020137
4 march, thu
thu401:00−18sse379888 0.1 1020181
04:00−18sse379889 0.0 1019149
07:00−18sse499593 0.1 1019260
10:00−16sse4109399 0.0 1017354
13:00−13sse5109399 0.3 1016500
16:00−9sse51091100 0.4 1014635
19:00−8sse51293100 0.8 1013668
22:00−7s51193100 0.4 1011729